Flag for Russia Weather past 2 weeks in Voronezh, Russia

Now
73 °F

Sunny.


Feels Like: 76 °F
Forecast: 51 / 81 °F
Wind: 6 mph from Northwest

Location: Voronez

Current Time: Jul 6, 2015 at 8:50:57 AM

Latest Report: Jul 6, 2015 at 8:00 AM


Visibility: 10 mi

Pressure: 29.86 "Hg

Humidity: 65%

Dew point: 61 °F

Location of VoronezhLocation

Historic Weather in Voronezh — Graph

°F

Voronezh temperature yesterday

Maximum temperature yesterday: 88 °F (at 2:30 PM)
Minimum temperature yesterday: 61 °F (at 3:30 AM)
Average temperature yesterday: 77 °F

Past Weeks' High & Low Weather Summary

 TemperatureHumidityPressure
High88 °F (Jul 5, 2:30 PM)94% (Jun 21, 8:00 AM)30.30 "Hg (Jun 21, 8:00 AM)
Low48 °F (Jul 4, 4:30 AM)27% (Jul 5, 4:30 PM)29.59 "Hg (Jun 27, 4:00 AM)
Average70 °F70%29.90 "Hg
* Reported Jun 21 8:00 AM — Jul 6 8:00 AM, Voronezh, Weather by CustomWeather, © 2015

Note: Actual official high and low records may vary slightly from our data, if they occured in-between our weather recording intervals... More about our weather records

Advertising

Voronezh weather history for previous 24 hours

 ConditionsComfort  
Time TempWeatherWind HumidityBarometerVisibility
8:00 AM
Mon, Jul 6
73 °FSunny.6 mph65%29.86 "Hg10 mi
7:00 AM72 °FSunny.6 mph69%29.86 "Hg10 mi
6:30 AM68 °FSunny.6 mph78%29.86 "Hg10 mi
6:00 AM66 °FSunny.3 mph83%29.86 "Hg10 mi
5:30 AM66 °FSunny.6 mph78%29.86 "Hg10 mi
5:00 AM64 °FClear.6 mph78%29.86 "Hg10 mi
4:30 AM64 °FClear.6 mph78%29.86 "Hg10 mi
4:00 AM66 °FClear.3 mph78%29.86 "Hg10 mi
3:30 AM68 °FClear.6 mph73%29.86 "Hg10 mi
3:00 AM68 °FClear.6 mph69%29.86 "Hg10 mi
2:30 AM68 °FClear.8 mph73%29.86 "Hg10 mi
2:00 AM70 °FClear.6 mph64%29.86 "Hg10 mi
1:30 AM70 °FClear.6 mph64%29.86 "Hg10 mi
1:00 AM70 °FClear.6 mph64%29.86 "Hg10 mi
12:30 AM72 °FClear.6 mph61%29.89 "Hg10 mi
12:00 AM73 °FClear.8 mph57%29.89 "Hg10 mi
11:30 PM
Sun, Jul 5
72 °FClear.6 mph61%29.89 "Hg10 mi
11:00 PM73 °FClear.6 mph57%29.89 "Hg10 mi
10:30 PM72 °FClear.6 mph61%29.89 "Hg10 mi
10:00 PM73 °FClear.6 mph57%29.89 "Hg10 mi
9:30 PM73 °FSunny.6 mph57%29.89 "Hg10 mi
9:00 PM75 °FSunny.6 mph50%29.89 "Hg10 mi
8:30 PM79 °FSunny.6 mph45%29.89 "Hg10 mi
8:00 PM81 °FSunny.6 mph42%29.89 "Hg10 mi
7:30 PM84 °FSunny.8 mph35%29.89 "Hg10 mi
7:00 PM84 °FSunny.8 mph33%29.89 "Hg10 mi
6:30 PM86 °FSunny.8 mph31%29.89 "Hg10 mi
6:00 PM86 °FSunny.13 mph27%29.89 "Hg10 mi
5:30 PM86 °FSunny.15 mph29%29.89 "Hg10 mi
5:00 PM88 °FSunny.13 mph27%29.89 "Hg10 mi
4:30 PM88 °FSunny.6 mph27%29.92 "Hg10 mi
4:00 PM88 °FSunny.15 mph31%29.92 "Hg10 mi
3:30 PM88 °FPassing clouds.13 mph31%29.92 "HgN/A
3:00 PM88 °FPassing clouds.8 mph31%29.95 "HgN/A
2:30 PM88 °FSunny.8 mph29%29.95 "Hg10 mi
2:00 PM86 °FSunny.13 mph31%29.95 "Hg10 mi
1:30 PM86 °FSunny.15 mph31%29.98 "Hg10 mi
1:00 PM86 °FSunny.10 mph31%29.98 "Hg10 mi
12:30 PM84 °FPassing clouds.15 mph35%29.98 "HgN/A
12:00 PM84 °FPassing clouds.6 mph37%29.98 "HgN/A
11:30 AM84 °FSunny.10 mph40%30.01 "Hg10 mi
11:00 AM82 °FPassing clouds.13 mph45%30.01 "HgN/A
10:00 AM81 °FPassing clouds.6 mph48%30.04 "HgN/A
9:30 AM79 °FSunny.6 mph54%30.04 "Hg10 mi
9:00 AM77 °FSunny.3 mph61%30.04 "Hg10 mi
8:30 AM75 °FSunny.6 mph65%30.04 "Hg10 mi
8:00 AM73 °FSunny.6 mph65%30.04 "Hg10 mi
Weather by CustomWeather, © 2015

See weather overviewHow to use our weather pages